HEBOWX Weather Reports


time (UTC)temp
C
wind
direction
speed
KPH
gust
KPH
rain 1hr
cm
rain 24hr
cm
rain mn
cm
humidity
%
barometer
mb
20260505125028 7 0 0.0 0.0 0.00 0.00 0.00 71 1010.5
20260505124530 7 0 0.0 0.0 0.00 0.00 0.00 70 1010.5
20260505124029 7 0 0.0 0.0 0.00 0.00 0.00 69 1010.4
20260505123528 7 0 0.0 0.0 0.00 0.00 0.00 70 1010.4
20260505123029 7 0 0.0 0.0 0.00 0.00 0.00 69 1010.4
20260505122532 7 0 0.0 0.0 0.00 0.00 0.00 70 1010.3
20260505122028 7 0 0.0 6.4 0.00 0.00 0.00 70 1010.3
20260505121528 7 0 0.0 6.4 0.00 0.00 0.00 70 1010.3
20260505121028 7 229 0.0 6.4 0.00 0.00 0.00 69 1010.3
20260505120528 7 0 0.0 3.2 0.00 0.00 0.00 69 1010.4
20260505120029 7 0 0.0 0.0 0.00 0.00 0.00 69 1010.3
20260505115528 7 0 0.0 6.4 0.00 0.00 0.00 69 1010.3
20260505115028 7 260 0.0 6.4 0.00 0.00 0.00 69 1010.3
20260505114528 7 266 0.0 6.4 0.00 0.00 0.00 68 1010.3
20260505114029 7 246 3.2 6.4 0.00 0.00 0.00 67 1010.4
20260505113528 7 247 3.2 6.4 0.00 0.00 0.00 66 1010.4
20260505113029 7 267 0.0 6.4 0.00 0.00 0.00 65 1010.3
20260505112528 8 0 4.8 4.8 0.00 0.00 0.00 64 1010.3
20260505112033 8 0 0.0 4.8 0.00 0.00 0.00 63 1010.3
20260505111528 8 260 0.0 4.8 0.00 0.00 0.00 60 1010.3
20260505111028 8 252 3.2 4.8 0.00 0.00 0.00 59 1010.3
20260505110528 8 0 0.0 0.0 0.00 0.00 0.00 57 1010.3
20260505102028 10 0 0.0 0.0 0.00 0.00 0.00 46 1010.2
20260505101529 11 0 0.0 0.0 0.00 0.00 0.00 43 1010.1
20260505101028 11 0 0.0 0.0 0.00 0.00 0.00 42 1010.2
20260505100528 11 0 0.0 0.0 0.00 0.00 0.00 44 1010.2
20260505100029 11 0 0.0 0.0 0.00 0.00 0.00 41 1010.2
20260505095528 11 0 0.0 0.0 0.00 0.00 0.00 41 1010.2
20260505095028 11 0 0.0 0.0 0.00 0.00 0.00 39 1010.2
20260505094029 11 0 0.0 0.0 0.00 0.00 0.00 39 1010.3
20260505093529 11 0 0.0 0.0 0.00 0.00 0.00 40 1010.3
20260505093028 11 0 0.0 0.0 0.00 0.00 0.00 40 1010.3
20260505092528 11 0 0.0 0.0 0.00 0.00 0.00 40 1010.2
20260505092028 11 0 0.0 0.0 0.00 0.00 0.00 40 1010.2
20260505091528 11 0 0.0 0.0 0.00 0.00 0.00 41 1010.2
20260505091028 11 0 0.0 0.0 0.00 0.00 0.00 40 1010.2
20260505090528 11 0 0.0 0.0 0.00 0.00 0.00 40 1010.1
20260505090029 11 0 0.0 0.0 0.00 0.00 0.00 39 1010.2
20260505085529 11 0 0.0 0.0 0.00 0.00 0.00 40 1010.1
20260505085028 11 0 0.0 0.0 0.00 0.00 0.00 40 1010.2
20260505084530 11 0 0.0 0.0 0.00 0.00 0.00 40 1010.2
20260505084029 12 0 0.0 0.0 0.00 0.00 0.00 40 1010.2
20260505083529 12 0 0.0 0.0 0.00 0.00 0.00 39 1010.2
20260505083027 12 0 0.0 0.0 0.00 0.00 0.00 37 1010.1
20260505082528 12 0 0.0 0.0 0.00 0.00 0.00 36 1010.2
20260505082028 12 0 0.0 0.0 0.00 0.00 0.00 37 1010.1
20260505081528 12 0 0.0 0.0 0.00 0.00 0.00 36 1010.2
20260505081034 12 0 0.0 0.0 0.00 0.00 0.00 35 1010.2
20260505080528 12 0 0.0 0.0 0.00 0.00 0.00 36 1010.2
20260505080029 12 0 0.0 0.0 0.00 0.00 0.00 36 1010.2
20260505075528 12 0 0.0 0.0 0.00 0.00 0.00 37 1010.1
20260505075028 12 0 0.0 0.0 0.00 0.00 0.00 36 1010.2
20260505074528 12 0 0.0 0.0 0.00 0.00 0.00 37 1010.1
20260505074030 12 0 0.0 0.0 0.00 0.00 0.00 36 1010.1
20260505073528 12 0 0.0 0.0 0.00 0.00 0.00 36 1010.1
20260505073028 12 0 0.0 0.0 0.00 0.00 0.00 36 1010.1
20260505072528 12 0 0.0 0.0 0.00 0.00 0.00 35 1010.1
20260505072027 12 0 0.0 0.0 0.00 0.00 0.00 36 1010.1
20260505071528 12 0 0.0 0.0 0.00 0.00 0.00 36 1010.1
20260505071029 12 0 0.0 0.0 0.00 0.00 0.00 36 1010.1
20260505070527 12 0 0.0 0.0 0.00 0.00 0.00 36 1009.9
20260505070028 12 0 0.0 0.0 0.00 0.00 0.00 35 1009.9
20260505065528 12 0 0.0 0.0 0.00 0.00 0.00 36 1009.9
20260505065028 12 0 0.0 0.0 0.00 0.00 0.00 35 1009.9
20260505064527 12 0 0.0 0.0 0.00 0.00 0.00 37 1009.9
20260505064029 12 0 0.0 0.0 0.00 0.00 0.00 37 1009.9
20260505063527 12 0 0.0 0.0 0.00 0.00 0.00 38 1010.1
20260505063028 12 0 0.0 0.0 0.00 0.00 0.00 39 1010.1
20260505062527 12 0 0.0 0.0 0.00 0.00 0.00 40 1010.1
20260505062028 12 0 0.0 0.0 0.00 0.00 0.00 41 1010.2
20260505061527 12 0 0.0 0.0 0.00 0.00 0.00 42 1010.1
20260505061029 12 0 0.0 0.0 0.00 0.00 0.00 40 1010.1
20260505060528 12 0 0.0 0.0 0.00 0.00 0.00 41 1010.1
20260505060027 12 0 0.0 0.0 0.00 0.00 0.00 41 1010.1
20260505055527 12 0 0.0 0.0 0.00 0.00 0.00 40 1010.1
20260505055120 12 0 0.0 0.0 0.00 0.00 0.00 42 1010.1
20260505055029 12 0 0.0 0.0 0.00 0.00 0.00 42 1010.1
20260505054527 12 0 0.0 0.0 0.00 0.00 0.00 42 1010.1
20260505054030 11 0 0.0 0.0 0.00 0.00 0.00 43 1010.1
20260505053528 11 0 0.0 0.0 0.00 0.00 0.00 43 1010.1
20260505053028 11 0 0.0 0.0 0.00 0.00 0.00 43 1010.1
20260505052528 11 0 0.0 0.0 0.00 0.00 0.00 43 1010.2
20260505052029 11 0 0.0 3.2 0.00 0.00 0.00 45 1010.1
20260505051530 11 0 0.0 3.2 0.00 0.00 0.00 46 1010.2
20260505051028 11 287 0.0 3.2 0.00 0.00 0.00 46 1010.3
20260505050527 11 0 0.0 0.0 0.00 0.00 0.00 46 1010.3
20260505041527 11 259 1.6 4.8 0.00 0.00 0.00 48 1009.8
20260505041027 11 292 3.2 6.4 0.00 0.00 0.00 48 1009.9
20260505040527 11 298 3.2 6.4 0.00 0.00 0.00 48 1009.7
20260505040027 11 284 1.6 6.4 0.00 0.00 0.00 48 1009.6
20260505035527 11 303 1.6 3.2 0.00 0.00 0.00 48 1009.6
20260505035028 11 296 1.6 4.8 0.00 0.00 0.00 47 1009.5
20260505034527 11 298 1.6 4.8 0.00 0.00 0.00 47 1009.5
20260505034027 11 292 0.0 4.8 0.00 0.00 0.00 48 1009.5
20260505033528 11 287 1.6 4.8 0.00 0.00 0.00 48 1009.4
20260505033029 11 287 1.6 4.8 0.00 0.00 0.00 48 1009.4
20260505032527 12 282 1.6 3.2 0.00 0.00 0.00 48 1009.4
20260505032027 12 323 1.6 3.2 0.00 0.00 0.00 47 1009.3
20260505031527 12 308 1.6 3.2 0.00 0.00 0.00 47 1009.3
20260505031027 12 312 1.6 3.2 0.00 0.00 0.00 47 1009.3
20260505030527 12 298 1.6 9.7 0.00 0.00 0.00 46 1009.3
20260505030027 12 295 1.6 9.7 0.00 0.00 0.00 46 1009.3
20260505025527 12 292 3.2 9.7 0.00 0.00 0.00 47 1009.2
20260505025027 12 284 4.8 9.7 0.00 0.00 0.00 46 1009.2
20260505024527 12 267 1.6 9.7 0.00 0.00 0.00 45 1009.2
20260505024027 12 280 4.8 9.7 0.00 0.00 0.00 46 1009.2
20260505023527 12 288 1.6 9.7 0.00 0.00 0.00 45 1009.3
20260505023027 12 289 3.2 8.0 0.00 0.00 0.00 44 1009.2
20260505022527 12 319 3.2 8.0 0.00 0.00 0.00 44 1009.2
20260505022027 13 278 3.2 11.3 0.00 0.00 0.00 46 1009.2
20260505021529 13 273 3.2 11.3 0.00 0.00 0.00 46 1009.1
20260505021027 13 284 3.2 11.3 0.00 0.00 0.00 43 1009.3
20260505020527 13 280 3.2 11.3 0.00 0.00 0.00 43 1009.3
20260505020027 14 288 8.0 11.3 0.00 0.00 0.00 44 1009.3
20260505015527 14 275 6.4 11.3 0.00 0.00 0.00 42 1009.4
20260505015027 15 284 6.4 9.7 0.00 0.00 0.00 42 1009.4
20260505014527 15 266 3.2 8.0 0.00 0.00 0.00 42 1009.4
20260505014027 15 274 1.6 8.0 0.00 0.00 0.00 40 1009.4
20260505013527 15 263 1.6 8.0 0.00 0.00 0.00 41 1009.4
20260505013027 15 275 3.2 4.8 0.00 0.00 0.00 42 1009.5
20260505012529 15 0 0.0 4.8 0.00 0.00 0.00 45 1009.6
20260505012027 15 0 0.0 4.8 0.00 0.00 0.00 43 1009.5
20260505011529 15 270 0.0 4.8 0.00 0.00 0.00 42 1009.5
20260505011027 15 0 0.0 3.2 0.00 0.00 0.00 42 1009.6
20260505010527 15 294 0.0 3.2 0.00 0.00 0.00 44 1009.6
20260505010027 15 0 0.0 0.0 0.00 0.00 0.00 46 1009.6
20260505005527 15 0 0.0 0.0 0.00 0.00 0.00 48 1009.7
20260505005029 15 0 0.0 0.0 0.00 0.00 0.00 46 1009.6
20260505004527 15 0 0.0 0.0 0.00 0.00 0.00 48 1009.7
20260505004027 15 0 0.0 0.0 0.00 0.00 0.00 48 1009.7
20260505003527 15 0 0.0 0.0 0.00 0.00 0.00 47 1009.7
20260505003027 15 0 0.0 0.0 0.00 0.00 0.00 46 1009.7
20260505002527 15 0 0.0 0.0 0.00 0.00 0.00 47 1009.8
20260505002029 15 0 0.0 0.0 0.00 0.00 0.00 47 1009.8
20260505001527 15 0 0.0 0.0 0.00 0.00 0.00 47 1009.8
20260505001027 15 0 0.0 0.0 0.00 0.00 0.00 47 1009.8
20260505000527 15 0 0.0 0.0 0.00 0.00 0.00 48 1009.8
20260505000027 15 0 0.0 0.0 0.00 0.00 0.00 48 1009.9
20260504235527 15 0 0.0 0.0 0.00 0.00 0.00 48 1009.9
20260504235119 15 0 0.0 0.0 0.00 0.00 0.00 48 1009.9
20260504235028 15 0 0.0 0.0 0.00 0.00 0.00 48 1009.9
20260504234527 16 0 0.0 0.0 0.00 0.00 0.00 48 1009.9
20260504234027 16 0 0.0 0.0 0.00 0.00 0.00 48 1009.9
20260504233527 16 0 0.0 0.0 0.00 0.00 0.00 49 1010.1
20260504233027 16 0 0.0 0.0 0.00 0.00 0.00 48 1010.1
20260504232527 16 0 0.0 0.0 0.00 0.00 0.00 48 1010.1
20260504232027 16 0 0.0 0.0 0.00 0.00 0.00 47 1010.1
20260504231527 16 0 0.0 0.0 0.00 0.00 0.00 48 1010.2
20260504231027 16 0 0.0 0.0 0.00 0.00 0.00 47 1010.1
20260504230527 16 0 0.0 0.0 0.00 0.00 0.00 47 1010.1
20260504230028 16 0 0.0 0.0 0.00 0.00 0.00 47 1010.2
20260504225527 16 0 0.0 0.0 0.00 0.00 0.00 47 1010.2
20260504225029 17 0 0.0 0.0 0.00 0.00 0.00 47 1010.3
20260504224527 17 0 0.0 0.0 0.00 0.00 0.00 47 1010.2
20260504224029 17 0 0.0 0.0 0.00 0.00 0.00 47 1010.2
20260504223528 17 0 0.0 0.0 0.00 0.00 0.00 47 1010.2
20260504223027 17 0 0.0 0.0 0.00 0.00 0.00 46 1010.2
20260504222527 17 0 0.0 0.0 0.00 0.00 0.00 47 1010.3
20260504222027 16 0 0.0 0.0 0.00 0.00 0.00 46 1010.3
20260504221527 17 0 0.0 0.0 0.00 0.00 0.00 47 1010.3
20260504221027 17 0 0.0 0.0 0.00 0.00 0.00 46 1010.4
20260504220526 17 0 0.0 0.0 0.00 0.00 0.00 46 1010.4
20260504220027 17 0 0.0 0.0 0.00 0.00 0.00 46 1010.4
20260504215526 17 0 0.0 0.0 0.00 0.00 0.00 46 1010.5
20260504215027 17 0 0.0 0.0 0.00 0.00 0.00 45 1010.4
20260504214526 17 0 0.0 0.0 0.00 0.00 0.00 45 1010.5
20260504214027 17 0 0.0 0.0 0.00 0.00 0.00 45 1010.5
20260504213526 17 0 0.0 0.0 0.00 0.00 0.00 46 1010.5
20260504213027 17 0 0.0 0.0 0.00 0.00 0.00 46 1010.5
20260504212527 17 0 0.0 0.0 0.00 0.00 0.00 46 1010.5
20260504212027 17 0 0.0 0.0 0.00 0.00 0.00 45 1010.5
20260504211527 17 0 0.0 0.0 0.00 0.00 0.00 44 1010.6
20260504211027 17 0 0.0 0.0 0.00 0.00 0.00 45 1010.5
20260504210526 17 0 0.0 0.0 0.00 0.00 0.00 45 1010.5
20260504210027 17 0 0.0 0.0 0.00 0.00 0.00 45 1010.6
20260504205527 17 0 0.0 0.0 0.00 0.00 0.00 45 1010.6
20260504205027 17 0 0.0 0.0 0.00 0.00 0.00 45 1010.7
20260504204529 17 0 0.0 0.0 0.00 0.00 0.00 46 1010.7
20260504204027 17 0 0.0 0.0 0.00 0.00 0.00 45 1010.7
20260504203528 16 0 0.0 0.0 0.00 0.00 0.00 46 1010.7
20260504203027 17 0 0.0 0.0 0.00 0.00 0.00 45 1010.7
20260504202527 17 0 0.0 0.0 0.00 0.00 0.00 46 1010.7
20260504202027 17 0 0.0 0.0 0.00 0.00 0.00 46 1010.7
20260504201526 16 0 0.0 0.0 0.00 0.00 0.00 46 1010.7
20260504201026 16 0 0.0 0.0 0.00 0.00 0.00 47 1010.7
20260504200528 16 0 0.0 0.0 0.00 0.00 0.00 47 1010.7
20260504200027 16 0 0.0 0.0 0.00 0.00 0.00 47 1010.7
20260504195528 16 0 0.0 0.0 0.00 0.00 0.00 46 1010.8
20260504195027 16 0 0.0 0.0 0.00 0.00 0.00 47 1010.8
20260504194528 16 0 0.0 0.0 0.00 0.00 0.00 47 1010.7
20260504194027 16 0 0.0 0.0 0.00 0.00 0.00 46 1010.7
20260504193527 16 0 0.0 0.0 0.00 0.00 0.00 46 1010.6
20260504193027 16 0 0.0 0.0 0.00 0.00 0.00 46 1010.6
20260504192526 16 0 0.0 0.0 0.00 0.00 0.00 47 1010.6
20260504192027 16 0 0.0 0.0 0.00 0.00 0.00 47 1010.6
20260504191527 16 0 0.0 0.0 0.00 0.00 0.00 46 1010.6
20260504191027 16 0 0.0 0.0 0.00 0.00 0.00 47 1010.7
20260504190528 16 0 0.0 0.0 0.00 0.00 0.00 47 1010.6
20260504190119 16 0 0.0 0.0 0.00 0.00 0.00 46 1010.7
20260504190027 16 0 0.0 0.0 0.00 0.00 0.00 46 1010.7
20260504185527 16 0 0.0 0.0 0.00 0.00 0.00 46 1010.7
20260504185026 16 0 0.0 0.0 0.00 0.00 0.00 45 1010.6
20260504184526 16 0 0.0 0.0 0.00 0.00 0.00 45 1010.7
20260504184027 16 0 0.0 0.0 0.00 0.00 0.00 44 1010.7
20260504183527 16 0 0.0 0.0 0.00 0.00 0.00 44 1010.6
20260504183027 16 0 0.0 0.0 0.00 0.00 0.00 43 1010.5
20260504182526 16 0 0.0 0.0 0.00 0.00 0.00 44 1010.5
20260504182026 16 0 0.0 0.0 0.00 0.00 0.00 45 1010.5
20260504181529 16 0 0.0 0.0 0.00 0.00 0.00 43 1010.5
20260504181027 16 0 0.0 0.0 0.00 0.00 0.00 42 1010.4
20260504180527 16 0 0.0 0.0 0.00 0.00 0.00 41 1010.3
20260504180026 16 0 0.0 0.0 0.00 0.00 0.00 35 1010.3
20260504175528 16 0 0.0 0.0 0.00 0.00 0.00 38 1010.3
20260504175026 16 0 0.0 0.0 0.00 0.00 0.00 35 1010.2
20260504174527 16 0 0.0 0.0 0.00 0.00 0.00 35 1010.2
20260504174026 16 0 0.0 0.0 0.00 0.00 0.00 38 1010.3
20260504173526 16 0 0.0 0.0 0.00 0.00 0.00 37 1010.3
20260504173026 16 0 0.0 0.0 0.00 0.00 0.00 36 1010.3
20260504172526 16 2 0.0 0.0 0.00 0.00 0.00 36 1010.3
20260504172028 16 0 0.0 0.0 0.00 0.00 0.00 31 1010.3
20260504171526 16 0 0.0 0.0 0.00 0.00 0.00 31 1010.2
20260504171026 16 0 0.0 0.0 0.00 0.00 0.00 31 1010.2
20260504170526 16 0 0.0 0.0 0.00 0.00 0.00 32 1010.1
20260504151026 15 320 0.0 8.0 0.00 0.00 0.00 39 1009.8
20260504150526 15 294 0.0 8.0 0.00 0.00 0.00 41 1009.7
20260504141026 15 351 1.6 3.2 0.00 0.00 0.00 44 1009.3
20260504140526 15 334 0.0 3.2 0.00 0.00 0.00 44 1009.3